Дата Пункты Температура Давл., мм. Влажн., % Ветер Погодные явления
Воздуха Воды Направл. Скорость
26.09.14 05:00 Одесса 6.0 18.0 759 91 Пн-З 1 06 часов
26.09.14 02:00 Одесса 7.0 18.0 759 87 З 1 03 часа
25.09.14 08:00 Одесса 10.0 18.0 759 69 З 1 21 час
25.09.14 05:00 Одесса 15.0 18.0 758 44 Пн-З 1 18 часов
25.09.14 02:00 Одесса 17.0 18.0 758 35 Пн-З 1 15 часов
25.09.14 11:00 Одесса 13.0 17.0 759 39 Пн-З 3 12 часов
25.09.14 08:00 Одесса 9.0 17.0 759 62 З 2 09 часов
25.09.14 05:00 Одесса 5.0 18.0 759 76 З 2 06 часов
25.09.14 02:00 Одесса 6.0 18.0 759 73 З 2 03 часа
24.09.14 08:00 Одесса 9.0 18.0 758 56 Пн-З 2 21 час
24.09.14 05:00 Одесса 12.0 18.0 757 48 Пн-З 4 18 часов
24.09.14 02:00 Одесса 14.0 18.0 756 51 Пн-З 4 15 часов
24.09.14 11:00 Одесса 13.0 19.0 755 59 З 6 12 часов
24.09.14 08:00 Одесса 11.0 19.0 753 74 З 3 09 часов
24.09.14 05:00 Одесса 11.0 19.0 751 83 З 3 06 часов
24.09.14 02:00 Одесса 11.0 19.0 750 83 З 4 03 часа
23.09.14 08:00 Одесса 13.0 19.0 748 94 Пн-З 2 21 час
23.09.14 05:00 Одесса 16.0 19.0 747 66 Пн-З 3 18 часов
23.09.14 02:00 Одесса 17.0 19.0 748 72 Пн-З 3 15 часов
23.09.14 11:00 Одесса 17.0 20.0 748 75 Пн-З 3 12 часов
Количество строк
511 512 513 514 515 516 517 518 519 520
Page 518 of 523